EW5295 Weather Reports


time (UTC)temp
C
wind
direction
speed
KPH
gust
KPH
rain 1hr
cm
rain 24hr
cm
rain mn
cm
humidity
%
barometer
mb
20260507014608 17 184 0.0 4.8 0.00 0.00 0.00 72 1019.0
20260507013030 17 115 0.0 3.2 0.00 0.00 0.00 72 1019.1
20260507010045 18 166 0.0 4.8 0.00 0.00 0.00 69 1019.0
20260507003053 18 182 0.0 4.8 0.00 0.00 0.00 69 1019.0
20260507003004 18 166 0.0 6.4 0.00 0.00 0.00 70 1019.0
20260507001621 19 157 0.0 8.0 0.00 0.00 0.00 70 1019.0
20260506231518 20 140 0.0 3.2 0.00 0.00 0.00 63 1018.9
20260506230023 20 134 0.0 1.6 0.00 0.00 0.00 64 1019.0
20260506224552 20 35 0.0 3.2 0.00 0.00 0.00 63 1019.3
20260506224529 21 37 0.0 3.2 0.00 0.00 0.00 63 1019.3
20260506223029 21 157 0.0 1.6 0.00 0.00 0.00 64 1019.3
20260506220043 21 134 0.0 1.6 0.00 0.00 0.00 64 1019.5
20260506214519 20 151 0.0 1.6 0.00 0.00 0.00 65 1019.4
20260506213035 20 141 0.0 1.6 0.00 0.00 0.00 67 1019.4
20260506211512 19 141 0.0 3.2 0.00 0.00 0.00 70 1019.6
20260506204519 18 266 0.0 3.2 0.00 0.00 0.00 69 1019.9
20260506194522 17 293 0.0 1.6 0.00 0.00 0.00 73 1020.1
20260506190100 17 91 0.0 1.6 0.00 0.00 0.00 77 1020.0
20260506184600 17 109 0.0 4.8 0.00 0.00 0.00 77 1020.1
20260506183047 16 179 0.0 1.6 0.00 0.00 0.00 79 1019.9
20260506181530 16 130 0.0 1.6 0.00 0.00 0.00 81 1020.0
20260506180001 15 141 0.0 1.6 0.00 0.00 0.00 82 1020.1
20260506174526 15 193 0.0 1.6 0.00 0.00 0.00 83 1020.1
20260506173021 14 160 0.0 0.0 0.00 0.00 0.00 85 1020.0
20260506171550 14 160 0.0 0.0 0.00 0.00 0.00 86 1019.7
20260506170015 13 115 0.0 0.0 0.00 0.00 0.00 87 1019.8
20260506164537 13 110 0.0 0.0 0.00 0.00 0.00 87 1020.0
20260506163020 13 110 0.0 0.0 0.00 0.00 0.00 88 1019.8
20260506161556 13 110 0.0 1.6 0.00 0.00 0.00 89 1019.9
20260506160031 13 110 0.0 1.6 0.00 0.00 0.00 90 1019.5
20260506154506 13 304 0.0 0.0 0.00 0.00 0.00 90 1019.2
20260506150034 -17 0.0 0.0 0.00 0.00 0.00 1019.8
20260506143032 -17 0.0 0.0 0.00 0.00 0.00 1019.5
20260506141523 -17 0.0 0.0 0.00 0.00 0.00 1019.1
20260506131553 -17 0.0 0.0 0.00 0.00 0.00 1018.7
20260506113033 12 117 0.0 0.0 0.00 0.00 0.00 89 1018.0
20260506111528 13 117 0.0 0.0 0.00 0.00 0.00 89 1018.0
20260506103021 13 117 0.0 0.0 0.00 0.00 0.00 88 1017.3
20260506101530 13 117 0.0 0.0 0.00 0.00 0.00 88 1017.2
20260506100036 13 117 0.0 0.0 0.00 0.00 0.00 88 1017.1
20260506093031 13 117 0.0 0.0 0.00 0.00 0.00 86 1016.8
20260506090002 13 116 0.0 0.0 0.00 0.00 0.00 86 1016.8
20260506084507 13 116 0.0 0.0 0.00 0.00 0.00 86 1016.8
20260506081523 13 116 0.0 0.0 0.00 0.00 0.00 85 1016.8
20260506073054 14 116 0.0 0.0 0.00 0.00 0.00 83 1016.5
20260506070103 14 148 0.0 0.0 0.00 0.00 0.00 83 1016.3
20260506061541 14 153 0.0 0.0 0.00 0.00 0.00 84 1016.2
20260506040056 13 153 0.0 0.0 0.00 0.00 0.00 83 1015.3
20260506040002 13 153 0.0 0.0 0.00 0.00 0.00 83 1015.3
20260506023057 16 153 0.0 0.0 0.00 0.00 0.00 75 1014.4